FW1466 Weather Reports


Display with metric or nautical units.
time (UTC)temp
F
wind
direction
speed
MPH
gust
MPH
rain 1hr
in
rain 24hr
in
rain mn
in
humidity
%
barometer
mb
20260906033045 73 153 0.0 5.0 0.00 0.03 0.03 88 1015.7
20260906031538 73 80 0.0 6.0 0.00 0.03 0.03 88 1015.7
20260906030033 73 77 1.0 6.0 0.00 0.03 0.03 88 1015.6
20260906024545 73 101 0.0 4.0 0.00 0.03 0.03 88 1015.7
20260906023031 73 74 0.0 11.0 0.00 0.03 0.03 88 1015.5
20260906021529 73 52 1.0 7.0 0.00 0.03 0.03 89 1015.6
20260906020028 73 84 2.0 11.0 0.00 0.03 0.03 88 1015.5
20260906014539 73 317 0.0 6.0 0.00 0.03 0.03 88 1015.6
20260906013039 73 67 0.0 5.0 0.00 0.03 0.03 88 1015.3
20260906011526 73 82 0.0 6.0 0.00 0.03 0.03 88 1015.5
20260906010027 73 360 0.0 5.0 0.00 0.03 0.03 89 1015.5
20260906004522 74 78 1.0 4.0 0.00 0.03 0.03 88 1015.4
20260906003020 75 57 1.0 8.0 0.00 0.03 0.03 87 1015.3
20260906001521 76 83 2.0 9.0 0.00 0.03 0.03 85 1014.9
20260906000016 77 82 1.0 7.0 0.00 0.03 0.03 84 1014.4
20260905234515 78 74 2.0 8.0 0.00 0.03 0.03 83 1014.1
20260905233015 79 20 0.0 9.0 0.00 0.03 0.03 82 1014.2
20260905231514 80 136 0.0 3.0 0.00 0.03 0.03 81 1014.2
20260905230013 81 36 2.0 10.0 0.00 0.03 0.03 78 1013.8
20260905224513 82 63 0.0 5.0 0.00 0.03 0.03 76 1013.6
20260905223012 81 321 0.0 5.0 0.00 0.03 0.03 77 1013.6
20260905221511 82 71 1.0 4.0 0.00 0.03 0.03 78 1013.4
20260905220012 82 341 3.0 8.0 0.00 0.03 0.03 76 1013.5
20260905214511 82 349 1.0 6.0 0.00 0.03 0.03 79 1013.6
20260905213010 81 332 2.0 8.0 0.00 0.03 0.03 81 1013.6
20260905211510 82 86 1.0 8.0 0.00 0.03 0.03 80 1013.7
20260905210009 81 327 2.0 6.0 0.00 0.03 0.03 79 1013.5
20260905204508 82 89 1.0 6.0 0.00 0.03 0.03 80 1013.8
20260905203009 81 355 1.0 6.0 0.00 0.03 0.03 81 1014.1
20260905201508 81 92 0.0 8.0 0.00 0.03 0.03 82 1013.9
20260905200008 81 5 1.0 8.0 0.00 0.03 0.03 81 1014.0
20260905194508 83 88 2.0 5.0 0.00 0.03 0.03 78 1014.0
20260905193006 83 26 1.0 8.0 0.00 0.03 0.03 78 1013.8
20260905191505 84 75 1.0 8.0 0.00 0.03 0.03 79 1013.8
20260905190004 85 59 1.0 6.0 0.00 0.03 0.03 78 1013.9
20260905184505 84 98 1.0 6.0 0.00 0.03 0.03 78 1013.9
20260905183003 85 92 2.0 10.0 0.00 0.03 0.03 78 1013.9
20260905181501 85 78 1.0 6.0 0.00 0.03 0.03 79 1014.0
20260905180001 84 343 0.0 4.0 0.00 0.03 0.03 78 1013.9
20260905174605 84 103 1.0 4.0 0.00 0.03 0.03 79 1013.8
20260905173102 85 340 2.0 6.0 0.00 0.03 0.03 77 1013.9
20260905171559 86 69 0.0 4.0 0.00 0.03 0.03 78 1013.9
20260905170055 84 84 0.0 9.0 0.00 0.03 0.03 80 1014.0
20260905164554 84 355 2.0 6.0 0.00 0.03 0.03 81 1014.2
20260905163055 84 259 1.0 7.0 0.00 0.03 0.03 81 1014.2
20260905161559 82 10 1.0 4.0 0.00 0.03 0.03 82 1014.3
20260905160046 82 351 4.0 9.0 0.00 0.03 0.03 83 1014.2
20260905154543 82 330 2.0 6.0 0.01 0.03 0.03 83 1013.9
20260905153039 81 355 0.0 5.0 0.01 0.03 0.03 87 1013.9
20260905151534 80 336 1.0 5.0 0.01 0.03 0.03 87 1013.9
20260905150031 79 264 0.0 4.0 0.01 0.03 0.03 90 1013.9
20260905144529 77 88 0.0 4.0 0.00 0.02 0.02 93 1013.7
20260905143027 76 319 0.0 4.0 0.00 0.02 0.02 94 1013.6
20260905141532 76 306 0.0 4.0 0.00 0.02 0.02 94 1013.7
20260905140025 77 298 0.0 3.0 0.00 0.02 0.02 93 1013.4
20260905134524 78 103 0.0 6.0 0.00 0.02 0.02 94 1013.3
20260905133020 77 76 1.0 4.0 0.00 0.02 0.02 97 1013.2
20260905131517 76 336 0.0 4.0 0.00 0.02 0.02 99 1013.6
20260905130013 75 33 0.0 2.0 0.00 0.02 0.02 100 1012.9
20260905124510 75 101 0.0 1.0 0.00 0.02 0.02 100 1013.0
20260905123016 75 101 0.0 1.0 0.00 0.02 0.02 100 1012.6
20260905121505 75 100 0.0 0.0 0.00 0.02 0.02 100 1012.6
20260905120002 75 100 0.0 0.0 0.00 0.02 0.02 100 1012.5
20260905114601 74 100 0.0 0.0 0.00 0.02 0.02 100 1012.2
20260905113058 74 100 0.0 0.0 0.00 0.02 0.02 99 1012.1
20260905111607 75 100 0.0 0.0 0.00 0.02 0.02 99 1011.9
20260905110059 75 100 0.0 0.0 0.00 0.02 0.02 99 1011.6
20260905104612 75 100 0.0 0.0 0.00 0.02 0.02 99 1011.7
20260905103055 75 100 0.0 0.0 0.00 0.02 0.02 99 1011.9
20260905101559 75 100 0.0 0.0 0.00 0.02 0.02 99 1011.8
20260905100058 75 100 0.0 0.0 0.02 0.02 0.02 99 1011.8
20260905094552 76 100 0.0 0.0 0.02 0.02 0.02 98 1011.8
20260905093051 76 100 0.0 0.0 0.02 0.02 0.02 98 1011.8
20260905091607 76 100 0.0 1.0 0.02 0.02 0.02 98 1011.8
20260905090051 76 100 0.0 0.0 0.00 0.00 0.00 98 1011.7
20260905084607 76 100 0.0 0.0 0.00 0.00 0.00 98 1011.9
20260905083047 76 100 0.0 0.0 0.00 0.00 0.00 97 1011.8
20260905081546 76 100 0.0 0.0 0.00 0.00 0.00 97 1011.9
20260905080044 77 101 0.0 0.0 0.00 0.00 0.00 97 1011.8
20260905074547 77 100 0.0 1.0 0.00 0.00 0.00 97 1011.9
20260905073042 77 101 0.0 2.0 0.00 0.00 0.00 96 1011.9
20260905071545 77 100 0.0 3.0 0.00 0.00 0.00 96 1011.8
20260905064538 78 132 0.0 1.0 0.00 0.00 0.00 96 1011.9
20260905063037 78 133 0.0 0.0 0.00 0.00 0.00 95 1012.0
20260905061536 78 132 0.0 0.0 0.00 0.00 0.00 95 1012.1
20260905060034 79 132 0.0 0.0 0.00 0.00 0.00 94 1012.2
20260905054545 79 133 0.0 0.0 0.00 0.00 0.00 94 1012.0
20260905053040 79 132 0.0 0.0 0.00 0.00 0.00 93 1012.1
20260905051538 79 133 0.0 0.0 0.00 0.00 0.00 93 1011.9
20260905050026 80 132 0.0 0.0 0.00 0.00 0.00 93 1012.0
20260905044526 80 132 0.0 0.0 0.00 0.00 0.00 93 1011.9
20260905043028 80 132 0.0 0.0 0.00 0.00 0.00 92 1011.9
20260905041525 80 132 0.0 0.0 0.00 0.00 0.00 92 1011.9
20260905040024 80 132 0.0 0.0 0.00 0.00 0.00 92 1012.1
20260905034532 80 132 0.0 0.0 0.00 0.00 0.00 92 1012.2